TITAN 3C TRANSTAGE DEB, 26763

Orbit data source: Space-Track

TITAN 3C TRANSTAGE DEB, 26763 is space debris in HEO originally from a launch on Tue, 21 Dec 1965 UTC launched from the Air Force Eastern Test Range (AFETR). Debris objects in space refer to the collection of defunct objects orbiting the Earth. Examples of debris include non-operational satellites, rocket bodies, and fragments generated from explosions, collisions, or faulty payload assembly.

Loading next visibility...
Identifier
26763, 1965-108AS
Orbit
HEO
Country
Flag of USUS
Related business
Manufacturer
Unknown
Mission
Spacecraft
Bus & Motor
Unknown
Mass
Unknown
Launch date (UTC)
1965-12-21 (60 years ago)
Launch vehicle
Unknown
Launch site
Air Force Eastern Test Range (AFETR)
Object type
Payload
Rocket body
Debris
Shape & HBR
Unknown shape, 0.1 m
Radar Cross Section
Small (<0.1 m²)

Expand to show TLE details & history
Last TLE update: 3 days ago

TLE from 3 days ago
0 TITAN 3C TRANSTAGE DEB
1 26763U 65108AS  26142.41857896  .00000035  00000-0  90332-3 0  9995
2 26763  26.1095 153.8542 6722143 181.0033 354.8711  2.74438266251568
Epoch: 2026-05-22T10:02Z
TLE epoch observation values (Epoch: 2026-05-22T10:02:45.222Z)
Latitude
13.79715°
Longitude
-86.84536°
Altitude
1,209.504 km
Speed
9.305 km/s
True Right ascension
20h 15m 34s
True Declination
13° 43' 21"
Sunlit
Object was in daylight at epoch
Visualization orbit readout
Latitude
Unknown
Longitude
Unknown
Altitude
Unknown
Speed
Unknown
Apparent Right ascension
Unknown
Apparent Declination
Unknown
Sunlit
N/A
Visualization observer readout
Local Sidereal Time
15:33:49
Azimuth
Unknown
Elevation
Unknown
Doppler factor
Unknown
Orbital elements
Apogee altitude
29,663.37 km
Perigee altitude
686.682 km
Semi-major axis
21,553.163 km
Eccentricity
0.67221
Inclination
26.1095°
RAAN
153.8542°
Arg. of periapsis
181.0033°
True anomaly
326.29495°
Mean anomaly
354.8711°
Eccentric anomaly
344.72281°
Mean motion
0.68593 °/min
Orbital period
524.84 mins
BSTAR
0.00090332
Loading maneuver chart data...
Computing Atmospheric mass density...

Documentation

Showing up to 5 results
|